User: anonymous   Login
Location: Unspecified
(0.0000°N, 0.0000°E)
Time: 19:20:36
(UTC+00:00)
Language:

USA 255 - Orbit

View from above orbital plane
View from above orbital plane
View from above satellite
View from above satellite

Ground track
Ground track

The orbit data is extracted from the following two-line orbital elements,

1 40101U 14043C   18329.48678787 0.00000000  00000-0  00000-0 0    09
2 40101   2.9657  75.0166 0013438 247.8722 111.9973  0.98719951    03
Epoch (UTC): 25 November 2018 11:40:58
Eccentricity: 0.0013438
inclination: 2.9657°
perigee height: 36169 km
apogee height: 36284 km
right ascension of ascending node: 75.0166°
argument of perigee: 247.8722°
revolutions per day: 0.98719951
mean anomaly at epoch: 111.9973°
orbit number at epoch: 0

The dashed part of the orbit path shows where the satellite is in the earth's shadow,  

DLR